Weather in Fateyevo

Russia / Kirov Oblast     58°24′46″N   49°57′17″E
temp.,
°C
wind,
m/s
gust,
m/s
humid.,
%
clouds,
%
prec.,
mm/h
press.,
hPa
HPBL,
m
9 march, tue
tue900:00−13n249798 0.1 1002101
03:00−16n239795 0.1 100479
06:00−16n259795 0.1 1006130
09:00−15nne359295 0.1 1008355
12:00−13nne2489100 0.1 1010462
15:00−13nne3590100 0.2 1011512
18:00−15nne3895100 0.2 1013476
21:00−17nne489398 0.3 1014409
10 march, wed
wed1000:00−21nne4994100 0.1 1015379
03:00−25nne4109585 0.1 1016262
06:00−27nne399575 0.0 1018280
09:00−24nne489047 0.0 1019349
12:00−18n47820 0.0 1019598
15:00−16nnw477912 0.0 1018870
18:00−20nw369597 0.0 1019100
21:00−22nw369881 0.0 1020104
11 march, thu
thu1100:00−23wnw379732 0.0 1019183
03:00−20wnw399666 0.2 1018346
06:00−18wnw4895100 0.1 1017420
09:00−12nw4990100 0.4 1018570
12:00−8nw5987100 0.1 1018795
15:00−6nw51081100 0.2 1018977
18:00−9nw5128598 0.0 1019649
21:00−12wnw4139179 0.0 1021439
12 march, fri
fri1200:00−14wnw4129162 0.0 1022361
03:00−15wnw4109178 0.0 1022337
06:00−15w4109181 0.0 1023294
09:00−13w5108990 0.0 1024385
12:00−9w5108193 0.0 1024644
15:00−8w6117991 0.0 1023675
18:00−11wsw4138544 0.0 1024481
21:00−12w4128928 0.0 1026422
13 march, sat
sat1300:00−14wsw411910 0.0 1027337
03:00−17wsw310950 0.0 1028230
06:00−18sw310920 0.0 1028239
09:00−12sw410810 0.0 1028345
12:00−6sw510720 0.0 1027658
15:00−6ssw510740 0.0 1026784
18:00−10ssw413860 0.0 1025472
21:00−11ssw413900 0.0 1025506